Location: Bazinghen
(50.8246°N, 1.6616°E)
Time: 00:02:19
(UTC+00:00)

USA 234 - Pass Details

Date: 09 April 2020
Orbit: 1102 x 1106 km, 123.0° (Epoch: 14 May)

Event Time Altitude Azimuth Distance (km) Brightness Sun altitude
Rises 21:34:43 0° 57° (ENE) 3,927 6.1 -23.9°
Reaches altitude 10° 21:37:14 10° 61° (ENE) 2,967 5.4 -24.1°
Maximum altitude 21:43:45 65° 143° (SE) 1,205 3.1 -24.7°
Drops below altitude 10° 21:50:14 10° 224° (SW) 2,957 5.4 -25.3°
Sets 21:52:44 0° 228° (SW) 3,913 6.1 -25.5°
